Terug naar catalogus

AMC-15

ActiefCommunicatieGEO
NORAD 28446·PAYLOAD·🇱🇺 Luxembourg

Gelanceerd Oct 14, 2004 vanaf Baikonur Cosmodrome

Loading…

TLE

VersSource: CelesTrak SupGP

Epoch: Sep 13, 2026, 23:30 UTC

1 28446C 04041A   26256.97916667  .00000001  00000+0  00000+0 0  2560
2 28446   0.0437 319.2298 0002149 183.8059  97.3784  1.00271969    18

Volg AMC-15 in realtime met AllMySat

Download on the App Store